[[[{"header":{"parameterUnit":"kt","parameterCategory":2,"dx":1,"dy":1,"la1":30.253999710083008,"la2":30.299108505249023,"lo1":-89.0895004272461,"lo2":-89.04439544677734,"nx":28,"ny":28,"refTime":"2022-10-30T21:00:00:Z","depth":0,"parameterNumber":1,"parameterNumberName":"U-component_of_WINDS"},"data":[9.0508,9.0735,9.0756,9.1027,9.1092,9.1282,9.1357,9.1457,9.1543,9.1776,9.1915,9.1961,9.2058,9.2232,9.2386,9.2404,9.2469,9.2536,9.2547,9.2224,9.2181,9.214,9.2085,9.2549,9.255,9.2878,9.2881,9.2883,9.0276,9.034,9.0488,9.0646,9.0774,9.0723,9.0845,9.0957,9.113,9.1237,9.1373,9.1581,9.1749,9.1825,9.1992,9.2104,9.209,9.2148,9.2141,9.2157,9.1813,9.1755,9.2156,9.2156,9.2156,9.2156,9.2156,9.2156,8.9858,8.9994,9.0098,9.026,9.0344,9.0451,9.0585,9.0636,9.0783,9.0955,9.0951,9.1149,9.1261,9.1472,9.1548,9.1706,9.1647,9.1717,9.1735,9.1753,9.1771,9.13,9.1735,9.1734,9.1733,9.1732,9.1732,0,8.9559,8.9566,8.9707,8.9856,8.9975,9.0093,9.0204,9.0288,9.031,9.0432,9.061,9.0717,9.0929,9.1102,9.1262,9.1327,9.1289,9.1287,9.1336,9.1341,9.1326,9.134,9.078,9.1274,9.127,9.1267,9.1265,9.1264,8.9142,8.9296,8.9413,8.9511,8.9575,8.9733,8.9831,8.9838,8.9943,9.0084,9.0206,9.0376,9.0513,9.0799,9.0861,9.1021,9.1004,9.1191,9.1028,9.1027,9.1011,9.1002,9.102,9.1223,9.1228,9.1232,9.1236,0,8.8907,8.8934,8.9178,8.9279,8.9309,8.9472,8.956,8.9697,8.973,8.9925,8.997,9.0025,9.0201,9.0232,9.044,9.0451,9.073,9.0708,9.0692,9.069,9.0862,9.0847,9.1411,9.1487,9.1003,9.1008,9.1012,0,8.8562,8.8764,8.8794,8.8934,8.916,8.9159,8.9384,8.9434,8.9526,8.9679,8.9635,8.978,8.9795,8.9946,8.9963,9.0195,9.0233,9.0257,9.0259,9.0262,9.026,9.032,9.0299,9.0254,9.0251,9.0249,9.0246,0,8.8192,8.8441,8.8668,8.873,8.8857,8.8965,8.9024,8.9125,8.9222,8.9352,8.9416,8.9569,8.9654,8.9776,8.9794,8.9683,9.0078,8.9929,9.0103,9.0103,9.0189,9.0184,9.0674,9.0243,9.0242,9.0241,9.024,0,8.7917,8.8043,8.8366,8.8471,8.8537,8.8687,8.8834,8.8969,8.908,8.9098,8.9201,8.9175,8.9376,8.9227,8.9507,8.9357,8.9445,8.9485,8.9498,8.9519,8.9351,8.9627,9.0089,9.014,8.9538,8.9533,8.9527,0,8.7488,8.7819,8.7818,8.8126,8.8283,8.8221,8.8389,8.8486,8.8523,8.8665,8.8707,8.8869,8.8763,8.8818,8.8953,8.9004,8.92,8.8979,8.9192,8.92,8.9166,8.9591,8.9653,8.9984,8.9453,8.946,8.9466,0,8.7157,8.7303,8.7357,8.7428,8.7551,8.7681,8.7873,8.803,8.8125,8.8238,8.8402,8.8629,8.8559,8.865,8.8644,8.8783,8.9068,8.869,8.8693,8.876,8.9416,8.9474,8.953,8.9035,8.9044,8.9051,8.9407,0,8.6744,8.691,8.7057,8.7208,8.7312,8.7504,8.7527,8.7634,8.7616,8.7649,8.7889,8.7976,8.8139,8.8207,8.8192,8.8498,8.8452,8.8375,8.8232,8.851,8.8628,8.8676,8.8054,8.805,8.8047,8.8044,0,0,8.6328,8.6565,8.6553,8.6735,8.6822,8.6752,8.6956,8.7033,8.7191,8.7255,8.7174,8.7507,8.7581,8.7871,8.7959,8.8024,8.8083,8.7983,8.8377,8.8414,8.8448,8.8574,8.8623,8.8038,8.8037,8.8035,8.8034,0,8.618,8.6247,8.6445,8.6523,8.6637,8.666,8.6708,8.6809,8.684,8.707,8.7012,8.7159,8.7423,8.751,8.759,8.7949,8.7899,8.7997,8.8182,8.8341,8.8383,8.8419,8.8551,8.8598,8.8026,8.8026,8.8027,0,8.5861,8.5932,8.6028,8.6216,8.629,8.6452,8.6306,8.6482,8.6604,8.652,8.675,8.6802,8.692,8.7187,8.7309,8.724,8.773,8.7577,8.76,8.7614,8.777,8.782,8.7864,8.728,8.7277,8.7275,0,0,8.5731,8.5882,8.5959,8.6185,8.6236,8.6271,8.6358,8.6348,8.645,8.6492,8.6556,8.6661,8.6815,8.6917,8.7062,8.7352,8.7379,8.7484,8.752,8.7548,8.7578,8.7741,8.7791,8.7265,8.7264,8.7264,0,0,8.5669,8.5765,8.5726,8.599,8.6088,8.6181,8.6321,8.6277,8.6408,8.6389,8.6383,8.641,8.666,8.6714,8.6574,8.7012,8.687,8.6904,8.6968,8.7013,8.7047,8.703,8.6439,0,0,0,0,0,8.5527,8.5752,8.5716,8.5763,8.6,8.6201,8.6232,8.6228,8.6128,8.624,8.6287,8.6224,8.6637,8.6513,8.6563,8.6719,8.7132,8.7156,8.7178,8.7329,8.7375,8.7414,0,0,0,0,0,0,8.5545,8.5602,8.571,8.5812,8.5865,8.6193,8.6022,8.6028,8.6116,8.6101,8.6217,8.6228,8.6232,8.6488,8.6533,8.6681,8.6424,8.7142,8.7161,8.7179,8.7344,8.7383,8.7415,0,0,0,0,0,8.556,8.5606,8.5985,8.5809,8.5855,8.5905,8.6014,8.6017,8.6086,8.6157,8.6165,8.6075,8.6236,8.6274,8.6514,8.6661,8.6393,8.6409,8.7154,8.717,8.7184,8.7363,0,0,0,0,0,0,8.557,8.5612,8.5995,8.6009,8.5721,8.5887,8.5912,8.6008,8.6136,8.6147,8.6013,8.5999,8.6242,8.627,8.63,8.6654,8.6367,8.6385,8.6395,8.7166,8.7179,8.719,0,0,0,0,0,0,8.5587,8.5625,8.6002,8.5892,8.5893,8.587,8.5893,8.6096,8.6139,8.5985,8.5977,8.6006,8.62,8.6269,8.6291,8.6609,8.6348,8.6364,8.6376,8.6383,8.7176,8.7186,0,0,0,0,0,0,8.5603,8.5635,8.5888,8.5889,8.589,8.6049,8.605,8.6295,8.6039,8.5981,8.6016,8.6006,8.6201,8.6223,8.6286,8.6595,8.6606,8.6349,8.636,8.6368,8.6373,0,0,0,0,0,0,0,8.5616,8.54,8.591,8.5887,8.5887,8.614,8.6144,8.6148,8.6037,8.6028,8.6019,8.601,8.6256,8.6273,8.6291,8.6583,0,0,8.6347,8.6355,0,0,0,0,0,0,0,0,8.5387,8.5397,8.591,8.5913,8.5916,8.6141,8.6144,8.6147,8.6035,8.6028,8.6021,8.6014,8.626,8.6275,8.6289,0,0,0,0,0,0,0,0,0,0,0,0,0,0,0,8.5911,8.5913,0,8.6141,8.6144,8.6147,8.6034,8.6028,8.6022,8.6017,8.6264,8.6276,8.6288,0,0,0,0,0,0,0,0,0,0,0,0,0,0,0,0,0,0,0,0,0,0,0,0,0,0,0,0,0,0,0,0,0,0,0,0,0,0,0,0,0,0,0,0,0,0,0,0,0,0,0,0,0,0,0,0,0,0,0,0,0,0,0,0,0,0,0,0,0]}],[{"header":{"parameterUnit":"kt","parameterCategory":2,"dx":1,"dy":1,"la1":30.253999710083008,"la2":30.299108505249023,"lo1":-89.0895004272461,"lo2":-89.04439544677734,"nx":28,"ny":28,"refTime":"2022-10-30T21:00:00:Z","depth":0,"parameterNumber":2,"parameterNumberName":"V-component_of_WINDS"},"data":[3.0666,3.0751,3.0793,3.0906,3.0963,3.1047,3.1091,3.115,3.1208,3.131,3.1375,3.1424,3.1497,3.1582,3.1653,3.1674,3.17,3.1696,3.172,3.1701,3.1701,3.1701,3.1685,3.1702,3.1702,3.1735,3.1735,3.1736,3.0637,3.0695,3.0769,3.087,3.0933,3.096,3.1041,3.1091,3.1165,3.1238,3.1306,3.1399,3.1477,3.1554,3.1635,3.1671,3.1689,3.169,3.1688,3.1699,3.1679,3.1662,3.1674,3.1674,3.1674,3.1674,3.1674,3.1674,3.0595,3.0645,3.0733,3.0815,3.0877,3.0943,3.0997,3.106,3.1132,3.1227,3.1264,3.1348,3.1428,3.155,3.1601,3.1665,3.1672,3.1687,3.1691,3.1693,3.1689,3.1629,3.1681,3.1681,3.1681,3.1682,3.1682,0,3.0579,3.0612,3.0689,3.0777,3.0839,3.0912,3.0986,3.102,3.1106,3.1162,3.1246,3.1302,3.141,3.1492,3.158,3.1632,3.1668,3.1677,3.1687,3.167,3.1641,3.1655,3.1619,3.1676,3.1676,3.1677,3.1677,3.1677,3.0538,3.0594,3.0709,3.0756,3.081,3.0885,3.0939,3.1012,3.1066,3.1166,3.1206,3.1291,3.1364,3.1489,3.1562,3.1643,3.1662,3.1678,3.1675,3.1653,3.166,3.1656,3.166,3.1678,3.1678,3.1678,3.1678,0,3.051,3.0586,3.0686,3.0797,3.0826,3.0879,3.0972,3.1025,3.1082,3.1162,3.1185,3.1275,3.1356,3.1429,3.1537,3.1572,3.165,3.1667,3.1621,3.1628,3.1649,3.1645,3.1709,3.1719,3.1704,3.1704,3.1704,0,3.0506,3.0576,3.0684,3.0739,3.0817,3.0893,3.0967,3.1026,3.1102,3.1165,3.122,3.1278,3.1363,3.1431,3.1483,3.1561,3.1582,3.1613,3.1626,3.1609,3.1605,3.1639,3.1638,3.1657,3.1657,3.1656,3.1656,0,3.0454,3.0598,3.0687,3.0732,3.086,3.0899,3.0954,3.1042,3.1095,3.1175,3.121,3.1298,3.1346,3.141,3.1477,3.1472,3.1576,3.1583,3.1607,3.1606,3.1629,3.1627,3.1663,3.1656,3.1655,3.1655,3.1655,0,3.0464,3.0548,3.0668,3.0775,3.081,3.087,3.0963,3.1032,3.112,3.1159,3.1223,3.127,3.1348,3.1348,3.1455,3.1428,3.147,3.1509,3.1512,3.1525,3.1524,3.1533,3.1561,3.1566,3.1532,3.1531,3.153,0,3.0382,3.0527,3.0595,3.0708,3.0785,3.0843,3.091,3.0989,3.1047,3.1118,3.1181,3.1263,3.128,3.1316,3.1359,3.1427,3.1461,3.1424,3.1521,3.1524,3.1495,3.1521,3.1508,3.1546,3.1518,3.1519,3.152,0,3.033,3.0492,3.0508,3.0562,3.0684,3.0751,3.0828,3.0928,3.0971,3.1057,3.1122,3.124,3.1257,3.1318,3.1368,3.1408,3.144,3.1422,3.1425,3.142,3.152,3.1505,3.1512,3.1463,3.1464,3.1466,3.1511,0,3.0321,3.0408,3.0455,3.0579,3.0644,3.0721,3.0807,3.0862,3.0904,3.0966,3.1064,3.1154,3.1256,3.1286,3.1329,3.1401,3.1401,3.1419,3.1428,3.1444,3.1461,3.1468,3.1395,3.1395,3.1396,3.1397,0,0,3.0223,3.035,3.0428,3.051,3.0569,3.0634,3.0708,3.0773,3.0905,3.0942,3.0947,3.1129,3.1203,3.1314,3.1326,3.1369,3.1388,3.1382,3.1436,3.144,3.1444,3.146,3.1467,3.1398,3.1398,3.1398,3.1398,0,3.024,3.0318,3.0394,3.0466,3.0575,3.0639,3.0657,3.0778,3.0822,3.0923,3.0975,3.1045,3.1192,3.1262,3.1316,3.1369,3.1405,3.1394,3.1393,3.1439,3.1443,3.1446,3.1462,3.1467,3.14,3.14,3.14,0,3.0203,3.0293,3.0341,3.0484,3.0558,3.0638,3.0667,3.0753,3.0813,3.0882,3.0983,3.1044,3.1147,3.1244,3.129,3.1297,3.1415,3.1396,3.1394,3.1402,3.1451,3.1455,3.1458,3.1414,3.1414,3.1414,0,0,3.0205,3.0288,3.0412,3.0495,3.0537,3.0636,3.0689,3.0739,3.0832,3.0869,3.0952,3.1039,3.1124,3.1179,3.1265,3.136,3.1386,3.1394,3.1393,3.1393,3.1399,3.1448,3.1452,3.1412,3.1412,3.1412,0,0,3.0207,3.0354,3.0383,3.0491,3.0578,3.0706,3.0752,3.0789,3.0877,3.0878,3.0967,3.0994,3.1087,3.1147,3.1121,3.1269,3.1276,3.1284,3.1228,3.1228,3.1228,3.1212,3.1165,0,0,0,0,0,3.0271,3.0336,3.036,3.0392,3.0576,3.0691,3.0715,3.0791,3.0792,3.0826,3.0901,3.0938,3.115,3.1129,3.1158,3.1188,3.1397,3.14,3.1403,3.1353,3.1352,3.1352,0,0,0,0,0,0,3.0285,3.0324,3.0358,3.0488,3.053,3.069,3.0709,3.0731,3.0791,3.0796,3.0922,3.0942,3.1008,3.1119,3.1144,3.1171,3.1157,3.1399,3.1401,3.1403,3.1353,3.1352,3.1352,0,0,0,0,0,3.0296,3.0327,3.0604,3.0487,3.0524,3.064,3.0707,3.0726,3.0773,3.0892,3.0913,3.0826,3.1007,3.1033,3.1134,3.1157,3.114,3.1149,3.14,3.1402,3.1403,3.1352,0,0,0,0,0,0,3.0304,3.0344,3.0613,3.0627,3.0471,3.0632,3.066,3.0721,3.0867,3.0888,3.0799,3.0801,3.1007,3.1027,3.1047,3.1148,3.1126,3.1136,3.1141,3.1401,3.1403,3.1404,0,0,0,0,0,0,3.0328,3.0355,3.062,3.0595,3.0607,3.0625,3.065,3.0748,3.0867,3.0766,3.0773,3.0798,3.0976,3.1023,3.1039,3.119,3.1116,3.1125,3.1131,3.1135,3.1402,3.1404,0,0,0,0,0,0,3.0341,3.0365,3.0592,3.0601,3.0611,3.0772,3.0713,3.0897,3.0847,3.0758,3.0844,3.0843,3.0971,3.0989,3.1033,3.1177,3.1186,3.1116,3.1122,3.1126,3.1129,0,0,0,0,0,0,0,3.0351,3.0175,3.0531,3.0606,3.0614,3.0755,3.0758,3.0762,3.0846,3.0845,3.0844,3.0843,3.1065,3.1075,3.1085,3.1166,0,0,3.1115,3.1119,0,0,0,0,0,0,0,0,3.0167,3.0173,3.0531,3.0534,3.0537,3.0755,3.0758,3.0761,3.0846,3.0845,3.0845,3.0844,3.1068,3.1076,3.1084,0,0,0,0,0,0,0,0,0,0,0,0,0,0,0,3.0531,3.0534,0,3.0756,3.0758,3.0761,3.0846,3.0845,3.0845,3.0844,3.107,3.1077,3.1083,0,0,0,0,0,0,0,0,0,0,0,0,0,0,0,0,0,0,0,0,0,0,0,0,0,0,0,0,0,0,0,0,0,0,0,0,0,0,0,0,0,0,0,0,0,0,0,0,0,0,0,0,0,0,0,0,0,0,0,0,0,0,0,0,0,0,0,0,0]}]]]